PIMOHWEATHER Station Historical Data
Daily Summary for July 11, 2020 Units:  Metric    English   Both
Daily Weekly Monthly Yearly
  High: Low: Average:
Temperature: 36.0 °C 26.0 °C 29.6 °C
Dew Point: 29.0 °C 24.0 °C 26.2 °C
Humidity: 91% 67% 83%
Wind Speed: 33km/h 0km/h 7.4km/h
Wind Gust: 40km/h - -
Wind- - South
Pressure: 1012.9 hPa 1008.5 hPa -
Precipitation: 0.30 mm    
 
 
Tabular Data for July 11, 2020
Time Temperature Dew Point Pressure Wind Wind Speed Wind Gust Humidity Rainfall Rate (Hourly) solar
00:04 28.0 °C 26.0 °C 1012.5 hPa Calm   4 km/h 88% 0.00 mm 0.00 W/m2
00:09 28.0 °C 26.0 °C 1012.4 hPa NW 4 km/h 4 km/h 87% 0.00 mm 0.00 W/m2
00:14 28.0 °C 26.0 °C 1012.4 hPa NW 5 km/h 8 km/h 88% 0.00 mm 0.00 W/m2
00:19 28.0 °C 26.0 °C 1012.4 hPa NW 6 km/h 8 km/h 88% 0.00 mm 0.00 W/m2
00:24 28.0 °C 26.0 °C 1012.4 hPa West 6 km/h 12 km/h 89% 0.00 mm 0.00 W/m2
00:29 28.0 °C 26.0 °C 1012.2 hPa WNW 11 km/h 12 km/h 89% 0.00 mm 0.00 W/m2
00:34 28.0 °C 26.0 °C 1012.2 hPa NW 14 km/h 20 km/h 90% 0.00 mm 0.00 W/m2
00:39 28.0 °C 26.0 °C 1012.0 hPa NW 15 km/h 20 km/h 90% 0.00 mm 0.00 W/m2
00:44 28.0 °C 26.0 °C 1012.0 hPa NNW 12 km/h 12 km/h 91% 0.00 mm 0.00 W/m2
00:49 28.0 °C 26.0 °C 1011.8 hPa North 12 km/h 16 km/h 91% 0.00 mm 0.00 W/m2
00:54 27.0 °C 26.0 °C 1011.8 hPa NNE 9 km/h 12 km/h 91% 0.00 mm 0.00 W/m2
00:59 27.0 °C 26.0 °C 1011.7 hPa North 14 km/h 20 km/h 91% 0.00 mm 0.00 W/m2
01:04 27.0 °C 26.0 °C 1011.8 hPa NNE 10 km/h 12 km/h 90% 0.00 mm 0.00 W/m2
01:09 27.0 °C 25.0 °C 1011.6 hPa North 9 km/h 12 km/h 90% 0.00 mm 0.00 W/m2
01:14 27.0 °C 25.0 °C 1011.7 hPa NNE 8 km/h 12 km/h 90% 0.00 mm 0.00 W/m2
01:19 27.0 °C 26.0 °C 1011.6 hPa North 7 km/h 8 km/h 91% 0.00 mm 0.00 W/m2
01:24 27.0 °C 26.0 °C 1011.6 hPa North 10 km/h 12 km/h 91% 0.00 mm 0.00 W/m2
01:29 27.0 °C 25.0 °C 1011.5 hPa NNE 9 km/h 12 km/h 90% 0.00 mm 0.00 W/m2
01:34 27.0 °C 25.0 °C 1011.4 hPa North 9 km/h 12 km/h 90% 0.00 mm 0.00 W/m2
01:39 27.0 °C 25.0 °C 1011.5 hPa NNE 9 km/h 12 km/h 90% 0.00 mm 0.00 W/m2
01:44 27.0 °C 25.0 °C 1011.2 hPa NNE 13 km/h 16 km/h 90% 0.00 mm 0.00 W/m2
01:49 27.0 °C 25.0 °C 1011.1 hPa North 6 km/h 8 km/h 90% 0.00 mm 0.00 W/m2
01:54 27.0 °C 25.0 °C 1011.3 hPa North 9 km/h 12 km/h 89% 0.00 mm 0.00 W/m2
01:59 27.0 °C 25.0 °C 1011.0 hPa North 10 km/h 12 km/h 89% 0.00 mm 0.00 W/m2
02:04 27.0 °C 25.0 °C 1010.9 hPa NNE 6 km/h 12 km/h 88% 0.00 mm 0.00 W/m2
02:09 27.0 °C 25.0 °C 1010.9 hPa North 5 km/h 8 km/h 88% 0.00 mm 0.00 W/m2
02:14 27.0 °C 25.0 °C 1010.9 hPa North 4 km/h 8 km/h 87% 0.00 mm 0.00 W/m2
02:19 27.0 °C 25.0 °C 1010.9 hPa NNE 9 km/h 12 km/h 87% 0.00 mm 0.00 W/m2
02:24 27.0 °C 25.0 °C 1010.9 hPa NNE 10 km/h 12 km/h 86% 0.00 mm 0.00 W/m2
02:29 27.0 °C 24.0 °C 1010.9 hPa North 12 km/h 12 km/h 86% 0.00 mm 0.00 W/m2
02:34 27.0 °C 25.0 °C 1010.8 hPa NNE 6 km/h 8 km/h 87% 0.00 mm 0.00 W/m2
02:39 27.0 °C 25.0 °C 1010.6 hPa North 6 km/h 8 km/h 87% 0.00 mm 0.00 W/m2
02:44 27.0 °C 25.0 °C 1010.6 hPa North 7 km/h 8 km/h 88% 0.00 mm 0.00 W/m2
02:49 27.0 °C 25.0 °C 1010.6 hPa NNW 4 km/h 4 km/h 88% 0.00 mm 0.00 W/m2
02:54 27.0 °C 25.0 °C 1010.7 hPa North 6 km/h 8 km/h 88% 0.00 mm 0.00 W/m2
02:59 27.0 °C 25.0 °C 1010.7 hPa NNW 3 km/h 4 km/h 88% 0.00 mm 0.00 W/m2
03:04 27.0 °C 25.0 °C 1010.8 hPa NW 6 km/h 8 km/h 88% 0.00 mm 0.00 W/m2
03:09 27.0 °C 25.0 °C 1010.8 hPa WNW 2 km/h 4 km/h 88% 0.00 mm 0.00 W/m2
03:14 27.0 °C 25.0 °C 1010.9 hPa Calm   4 km/h 88% 0.00 mm 0.00 W/m2
03:19 27.0 °C 25.0 °C 1011.1 hPa Calm     89% 0.00 mm 0.00 W/m2
03:24 27.0 °C 25.0 °C 1010.8 hPa Calm     89% 0.00 mm 0.00 W/m2
03:29 27.0 °C 25.0 °C 1010.9 hPa NNW 3 km/h 4 km/h 89% 0.00 mm 0.00 W/m2
03:34 27.0 °C 25.0 °C 1010.8 hPa NW 9 km/h 12 km/h 89% 0.00 mm 0.00 W/m2
03:39 27.0 °C 25.0 °C 1010.8 hPa NW 8 km/h 12 km/h 89% 0.00 mm 0.00 W/m2
03:44 27.0 °C 25.0 °C 1010.7 hPa NW 6 km/h 8 km/h 89% 0.00 mm 0.00 W/m2
03:49 27.0 °C 25.0 °C 1010.6 hPa NW 8 km/h 12 km/h 89% 0.00 mm 0.00 W/m2
03:54 27.0 °C 24.0 °C 1010.6 hPa NW 6 km/h 8 km/h 88% 0.00 mm 0.00 W/m2
03:59 26.0 °C 24.0 °C 1010.8 hPa NW 11 km/h 12 km/h 88% 0.00 mm 0.00 W/m2
04:04 26.0 °C 24.0 °C 1010.6 hPa NW 7 km/h 12 km/h 88% 0.00 mm 0.00 W/m2
04:09 26.0 °C 24.0 °C 1010.7 hPa WNW 6 km/h 8 km/h 88% 0.00 mm 0.00 W/m2
04:14 27.0 °C 24.0 °C 1010.7 hPa NW 6 km/h 8 km/h 88% 0.00 mm 0.00 W/m2
04:19 26.0 °C 24.0 °C 1010.7 hPa NW 6 km/h 8 km/h 88% 0.00 mm 0.00 W/m2
04:24 27.0 °C 24.0 °C 1010.8 hPa North 8 km/h 8 km/h 88% 0.00 mm 0.00 W/m2
04:29 26.0 °C 24.0 °C 1010.8 hPa North 7 km/h 8 km/h 88% 0.00 mm 0.00 W/m2
04:34 26.0 °C 24.0 °C 1010.9 hPa NNE 8 km/h 8 km/h 88% 0.00 mm 0.00 W/m2
04:39 26.0 °C 24.0 °C 1010.9 hPa North 5 km/h 8 km/h 89% 0.00 mm 0.00 W/m2
04:44 26.0 °C 24.0 °C 1010.8 hPa NNE 5 km/h 8 km/h 89% 0.00 mm 0.00 W/m2
04:49 26.0 °C 24.0 °C 1010.8 hPa North 5 km/h 8 km/h 89% 0.00 mm 0.00 W/m2
04:59 26.0 °C 24.0 °C 1010.8 hPa NNE 5 km/h 8 km/h 89% 0.00 mm 0.00 W/m2
05:04 26.0 °C 24.0 °C 1010.8 hPa North 5 km/h 8 km/h 90% 0.00 mm 0.00 W/m2
05:09 26.0 °C 24.0 °C 1011.1 hPa NNW 4 km/h 8 km/h 90% 0.00 mm 0.00 W/m2
05:14 26.0 °C 24.0 °C 1011.0 hPa NNE 5 km/h 8 km/h 90% 0.00 mm 0.00 W/m2
05:19 26.0 °C 24.0 °C 1010.9 hPa NNE 5 km/h 8 km/h 90% 0.00 mm 0.00 W/m2
05:24 26.0 °C 24.0 °C 1011.0 hPa NNE 5 km/h 8 km/h 90% 0.00 mm 0.00 W/m2
05:29 26.0 °C 24.0 °C 1011.0 hPa NNE 5 km/h 8 km/h 90% 0.00 mm 0.00 W/m2
05:34 26.0 °C 25.0 °C 1011.0 hPa NNE 8 km/h 8 km/h 91% 0.00 mm 0.00 W/m2
05:39 26.0 °C 25.0 °C 1011.1 hPa North 9 km/h 12 km/h 91% 0.00 mm 2.52 W/m2
05:44 26.0 °C 25.0 °C 1011.1 hPa NNE 8 km/h 12 km/h 91% 0.00 mm 6.34 W/m2
05:49 26.0 °C 25.0 °C 1011.2 hPa NNE 10 km/h 12 km/h 91% 0.00 mm 11.14 W/m2
05:54 26.0 °C 25.0 °C 1011.0 hPa NNE 9 km/h 12 km/h 91% 0.00 mm 17.74 W/m2
05:59 26.0 °C 25.0 °C 1011.0 hPa NNE 8 km/h 12 km/h 91% 0.00 mm 23.47 W/m2
06:04 26.0 °C 25.0 °C 1011.1 hPa North 9 km/h 12 km/h 91% 0.00 mm 28.75 W/m2
06:09 26.0 °C 25.0 °C 1011.2 hPa North 6 km/h 8 km/h 91% 0.00 mm 35.70 W/m2
06:14 26.0 °C 25.0 °C 1011.3 hPa North 9 km/h 12 km/h 91% 0.00 mm 44.81 W/m2
06:19 27.0 °C 25.0 °C 1011.4 hPa North 4 km/h 4 km/h 91% 0.00 mm 56.35 W/m2
06:24 27.0 °C 25.0 °C 1011.4 hPa NNE 6 km/h 8 km/h 91% 0.00 mm 95.71 W/m2
06:29 27.0 °C 25.0 °C 1011.5 hPa North 6 km/h 8 km/h 91% 0.00 mm 92.41 W/m2
06:34 27.0 °C 25.0 °C 1011.5 hPa NNE 3 km/h 4 km/h 91% 0.00 mm 80.86 W/m2
06:39 27.0 °C 26.0 °C 1011.5 hPa NNE 3 km/h 4 km/h 90% 0.00 mm 100.14 W/m2
06:44 27.0 °C 26.0 °C 1011.5 hPa North 3 km/h 4 km/h 90% 0.00 mm 128.40 W/m2
06:49 27.0 °C 26.0 °C 1011.5 hPa North 3 km/h 4 km/h 90% 0.00 mm 91.72 W/m2
06:54 27.0 °C 26.0 °C 1011.6 hPa North 5 km/h 8 km/h 90% 0.00 mm 101.39 W/m2
06:59 27.0 °C 26.0 °C 1011.7 hPa NNE 5 km/h 8 km/h 90% 0.00 mm 117.44 W/m2
07:04 27.0 °C 26.0 °C 1011.8 hPa NNE 5 km/h 8 km/h 90% 0.00 mm 109.63 W/m2
07:09 28.0 °C 26.0 °C 1011.8 hPa North 4 km/h 4 km/h 90% 0.00 mm 135.45 W/m2
07:14 28.0 °C 26.0 °C 1011.7 hPa NNE 3 km/h 4 km/h 89% 0.00 mm 174.69 W/m2
07:19 28.0 °C 26.0 °C 1011.7 hPa North 4 km/h 8 km/h 89% 0.00 mm 155.73 W/m2
07:24 28.0 °C 26.0 °C 1011.7 hPa Calm     89% 0.00 mm 144.40 W/m2
07:29 28.0 °C 26.0 °C 1011.7 hPa North 1 km/h 4 km/h 88% 0.00 mm 169.14 W/m2
07:34 29.0 °C 26.0 °C 1011.9 hPa Calm   4 km/h 88% 0.00 mm 157.61 W/m2
07:39 29.0 °C 26.0 °C 1011.7 hPa Calm     87% 0.00 mm 268.99 W/m2
07:44 30.0 °C 27.0 °C 1011.7 hPa Calm     85% 0.00 mm 303.10 W/m2
07:49 30.0 °C 27.0 °C 1011.6 hPa ESE 3 km/h 4 km/h 83% 0.00 mm 246.50 W/m2
07:54 30.0 °C 27.0 °C 1011.8 hPa Calm     83% 0.00 mm 296.93 W/m2
07:59 30.0 °C 27.0 °C 1011.6 hPa SSE 1 km/h 4 km/h 81% 0.00 mm 263.26 W/m2
08:03 30.0 °C 27.0 °C 1011.5 hPa South 3 km/h 4 km/h 81% 0.00 mm 227.20 W/m2
08:09 30.0 °C 27.0 °C 1011.4 hPa SSE 6 km/h 8 km/h 82% 0.00 mm 261.18 W/m2
08:14 30.0 °C 27.0 °C 1011.5 hPa SSE 5 km/h 8 km/h 83% 0.00 mm 319.12 W/m2
08:19 31.0 °C 27.0 °C 1011.5 hPa ESE 4 km/h 8 km/h 82% 0.00 mm 331.80 W/m2
08:24 31.0 °C 27.0 °C 1011.4 hPa SE 8 km/h 12 km/h 82% 0.00 mm 264.00 W/m2
08:29 30.0 °C 27.0 °C 1011.5 hPa SSE 3 km/h 4 km/h 82% 0.00 mm 235.44 W/m2
08:34 31.0 °C 27.0 °C 1011.2 hPa SSE 5 km/h 8 km/h 81% 0.00 mm 236.03 W/m2
08:39 31.0 °C 27.0 °C 1011.2 hPa South 3 km/h 4 km/h 80% 0.00 mm 247.90 W/m2
08:43 31.0 °C 27.0 °C 1011.2 hPa SSE 5 km/h 8 km/h 80% 0.00 mm 306.77 W/m2
08:49 31.0 °C 27.0 °C 1011.2 hPa SSE 3 km/h 4 km/h 79% 0.00 mm 598.86 W/m2
08:53 32.0 °C 27.0 °C 1011.2 hPa SSE 3 km/h 4 km/h 77% 0.00 mm 501.04 W/m2
08:59 33.0 °C 28.0 °C 1011.2 hPa NNE 5 km/h 8 km/h 77% 0.00 mm 431.43 W/m2
09:04 32.0 °C 27.0 °C 1011.2 hPa SW 5 km/h 8 km/h 77% 0.00 mm 520.10 W/m2
09:09 32.0 °C 28.0 °C 1011.1 hPa SSW 6 km/h 8 km/h 77% 0.00 mm 407.84 W/m2
09:14 32.0 °C 28.0 °C 1011.0 hPa SSW 9 km/h 12 km/h 78% 0.00 mm 327.24 W/m2
09:19 32.0 °C 27.0 °C 1011.1 hPa SSW 5 km/h 8 km/h 78% 0.00 mm 286.73 W/m2
09:24 32.0 °C 28.0 °C 1011.1 hPa WSW 5 km/h 8 km/h 79% 0.00 mm 545.13 W/m2
09:29 31.0 °C 27.0 °C 1011.2 hPa West 5 km/h 8 km/h 79% 0.00 mm 339.77 W/m2
09:33 31.0 °C 27.0 °C 1011.2 hPa SSW 4 km/h 8 km/h 79% 0.00 mm 471.80 W/m2
09:39 32.0 °C 28.0 °C 1011.2 hPa WNW 5 km/h 8 km/h 79% 0.00 mm 482.27 W/m2
09:44 32.0 °C 28.0 °C 1011.2 hPa West 5 km/h 8 km/h 78% 0.00 mm 594.16 W/m2
09:49 32.0 °C 28.0 °C 1011.2 hPa SSW 8 km/h 12 km/h 78% 0.00 mm 388.68 W/m2
09:54 32.0 °C 28.0 °C 1011.1 hPa SSW 9 km/h 12 km/h 79% 0.00 mm 477.82 W/m2
09:59 32.0 °C 28.0 °C 1011.2 hPa South 8 km/h 12 km/h 80% 0.00 mm 582.81 W/m2
10:04 32.0 °C 28.0 °C 1011.3 hPa SSW 6 km/h 8 km/h 78% 0.00 mm 645.96 W/m2
10:09 32.0 °C 28.0 °C 1011.2 hPa WSW 10 km/h 12 km/h 78% 0.00 mm 591.64 W/m2
10:12 32.0 °C 28.0 °C 1011.2 hPa WNW 5 km/h 8 km/h 77% 0.00 mm 590.00 W/m2
10:19 32.0 °C 28.0 °C 1010.8 hPa WSW 6 km/h 12 km/h 77% 0.00 mm 528.51 W/m2
10:23 32.0 °C 28.0 °C 1010.8 hPa South 6 km/h 8 km/h 76% 0.00 mm 602.79 W/m2
10:29 33.0 °C 28.0 °C 1011.0 hPa SSW 10 km/h 16 km/h 77% 0.00 mm 647.69 W/m2
10:33 33.0 °C 28.0 °C 1010.8 hPa South 10 km/h 16 km/h 76% 0.00 mm 674.68 W/m2
10:39 33.0 °C 28.0 °C 1010.9 hPa SSW 12 km/h 16 km/h 76% 0.00 mm 593.82 W/m2
10:44 33.0 °C 28.0 °C 1010.8 hPa SSW 6 km/h 12 km/h 77% 0.00 mm 679.92 W/m2
10:49 33.0 °C 28.0 °C 1010.8 hPa South 10 km/h 12 km/h 75% 0.00 mm 662.40 W/m2
10:54 33.0 °C 28.0 °C 1010.8 hPa SSW 10 km/h 12 km/h 76% 0.00 mm 555.25 W/m2
10:59 33.0 °C 28.0 °C 1010.8 hPa South 11 km/h 12 km/h 76% 0.00 mm 594.87 W/m2
11:04 33.0 °C 28.0 °C 1010.8 hPa SSW 9 km/h 12 km/h 75% 0.00 mm 603.28 W/m2
11:07 33.0 °C 28.0 °C 1010.5 hPa SSW 3 km/h 4 km/h 75% 0.00 mm 601.16 W/m2
11:14 33.0 °C 28.0 °C 1010.6 hPa South 5 km/h 8 km/h 75% 0.00 mm 653.69 W/m2
11:19 33.0 °C 28.0 °C 1010.6 hPa SSW 8 km/h 12 km/h 75% 0.00 mm 646.13 W/m2
11:24 33.0 °C 28.0 °C 1010.5 hPa SW 9 km/h 12 km/h 76% 0.00 mm 498.49 W/m2
11:29 33.0 °C 28.0 °C 1010.5 hPa South 6 km/h 8 km/h 75% 0.00 mm 472.85 W/m2
11:34 33.0 °C 28.0 °C 1010.6 hPa West 9 km/h 12 km/h 76% 0.00 mm 420.69 W/m2
11:39 33.0 °C 28.0 °C 1010.6 hPa South 6 km/h 12 km/h 75% 0.00 mm 670.23 W/m2
11:44 33.0 °C 28.0 °C 1010.5 hPa West 12 km/h 16 km/h 75% 0.00 mm 611.04 W/m2
11:49 33.0 °C 28.0 °C 1010.5 hPa NW 15 km/h 20 km/h 77% 0.00 mm 651.53 W/m2
11:54 33.0 °C 28.0 °C 1010.5 hPa NW 10 km/h 16 km/h 75% 0.00 mm 494.45 W/m2
11:59 33.0 °C 28.0 °C 1010.5 hPa SSW 12 km/h 16 km/h 75% 0.00 mm 510.24 W/m2
12:04 33.0 °C 28.0 °C 1010.2 hPa WSW 9 km/h 12 km/h 75% 0.00 mm 426.48 W/m2
12:09 33.0 °C 28.0 °C 1010.2 hPa South 8 km/h 12 km/h 75% 0.00 mm 395.83 W/m2
12:11 33.0 °C 28.0 °C 1010.2 hPa SW 8 km/h 12 km/h 74% 0.00 mm 511.70 W/m2
12:19 33.0 °C 28.0 °C 1010.2 hPa SW 12 km/h 16 km/h 75% 0.00 mm 509.04 W/m2
12:24 33.0 °C 28.0 °C 1010.2 hPa West 8 km/h 8 km/h 74% 0.00 mm 508.06 W/m2
12:29 33.0 °C 28.0 °C 1010.1 hPa SSW 8 km/h 16 km/h 74% 0.00 mm 444.81 W/m2
12:32 33.0 °C 28.0 °C 1009.9 hPa SW 6 km/h 8 km/h 74% 0.00 mm 508.57 W/m2
12:39 33.0 °C 28.0 °C 1010.1 hPa WNW 11 km/h 16 km/h 76% 0.00 mm 436.83 W/m2
12:44 33.0 °C 28.0 °C 1009.8 hPa WNW 14 km/h 16 km/h 77% 0.00 mm 419.22 W/m2
12:49 33.0 °C 28.0 °C 1009.8 hPa NNW 5 km/h 8 km/h 75% 0.00 mm 428.83 W/m2
12:54 32.0 °C 28.0 °C 1009.7 hPa WSW 6 km/h 8 km/h 76% 0.00 mm 306.52 W/m2
12:59 33.0 °C 28.0 °C 1009.7 hPa WSW 7 km/h 12 km/h 77% 0.00 mm 295.71 W/m2
13:04 32.0 °C 28.0 °C 1009.8 hPa WNW 10 km/h 12 km/h 76% 0.00 mm 449.58 W/m2
13:09 33.0 °C 28.0 °C 1009.8 hPa SSW 8 km/h 12 km/h 77% 0.00 mm 652.88 W/m2
13:14 34.0 °C 28.0 °C 1009.6 hPa West 10 km/h 12 km/h 74% 0.00 mm 661.49 W/m2
13:19 34.0 °C 28.0 °C 1009.5 hPa WSW 21 km/h 24 km/h 74% 0.00 mm 663.47 W/m2
13:29 34.0 °C 28.0 °C 1009.5 hPa WSW 9 km/h 12 km/h 75% 0.00 mm 589.31 W/m2
13:39 34.0 °C 28.0 °C 1009.2 hPa WNW 8 km/h 12 km/h 73% 0.00 mm 666.83 W/m2
13:44 35.0 °C 28.0 °C 1009.1 hPa WNW 6 km/h 12 km/h 70% 0.00 mm 710.84 W/m2
13:49 35.0 °C 29.0 °C 1009.2 hPa SSW 6 km/h 8 km/h 69% 0.00 mm 714.19 W/m2
13:54 35.0 °C 29.0 °C 1009.1 hPa NW 10 km/h 12 km/h 69% 0.00 mm 727.38 W/m2
13:59 36.0 °C 28.0 °C 1009.0 hPa WSW 10 km/h 16 km/h 68% 0.00 mm 716.81 W/m2
14:04 36.0 °C 29.0 °C 1008.8 hPa SW 9 km/h 12 km/h 67% 0.00 mm 737.44 W/m2
14:09 36.0 °C 28.0 °C 1008.8 hPa SSW 10 km/h 16 km/h 68% 0.00 mm 719.43 W/m2
14:14 35.0 °C 28.0 °C 1008.9 hPa South 13 km/h 16 km/h 69% 0.00 mm 725.55 W/m2
14:19 36.0 °C 28.0 °C 1008.7 hPa West 13 km/h 16 km/h 68% 0.00 mm 727.97 W/m2
14:24 35.0 °C 28.0 °C 1008.5 hPa NW 15 km/h 20 km/h 70% 0.00 mm 672.80 W/m2
14:29 34.0 °C 28.0 °C 1008.5 hPa SSW 13 km/h 16 km/h 69% 0.00 mm 683.59 W/m2
14:34 35.0 °C 28.0 °C 1008.7 hPa South 10 km/h 12 km/h 69% 0.00 mm 685.86 W/m2
14:39 35.0 °C 28.0 °C 1008.8 hPa West 10 km/h 16 km/h 67% 0.00 mm 692.17 W/m2
14:43 35.0 °C 28.0 °C 1008.8 hPa West 8 km/h 12 km/h 67% 0.00 mm 612.02 W/m2
14:49 34.0 °C 28.0 °C 1009.2 hPa West 14 km/h 16 km/h 71% 0.00 mm 527.26 W/m2
14:54 34.0 °C 28.0 °C 1009.2 hPa WNW 16 km/h 24 km/h 71% 0.00 mm 594.82 W/m2
14:59 35.0 °C 28.0 °C 1008.6 hPa SSW 17 km/h 20 km/h 70% 0.00 mm 679.08 W/m2
15:04 35.0 °C 28.0 °C 1008.8 hPa WNW 23 km/h 24 km/h 72% 0.00 mm 673.95 W/m2
15:09 36.0 °C 28.0 °C 1009.2 hPa SSW 15 km/h 16 km/h 69% 0.00 mm 607.00 W/m2
15:14 35.0 °C 28.0 °C 1009.3 hPa SSW 12 km/h 16 km/h 68% 0.00 mm 590.54 W/m2
15:16 34.0 °C 27.0 °C 1009.1 hPa South 9 km/h 12 km/h 68% 0.00 mm 423.72 W/m2
15:24 34.0 °C 28.0 °C 1009.1 hPa SSW 10 km/h 16 km/h 72% 0.00 mm 434.14 W/m2
15:29 33.0 °C 28.0 °C 1009.1 hPa SSW 10 km/h 12 km/h 74% 0.00 mm 206.96 W/m2
15:33 32.0 °C 28.0 °C 1009.1 hPa SSW 12 km/h 16 km/h 76% 0.00 mm 175.65 W/m2
15:39 32.0 °C 27.0 °C 1009.5 hPa South 11 km/h 16 km/h 78% 0.00 mm 195.44 W/m2
15:44 32.0 °C 28.0 °C 1009.3 hPa SSW 12 km/h 16 km/h 79% 0.00 mm 220.45 W/m2
15:49 32.0 °C 28.0 °C 1009.3 hPa SSE 14 km/h 16 km/h 83% 0.00 mm 220.20 W/m2
15:54 31.0 °C 28.0 °C 1009.2 hPa South 9 km/h 12 km/h 84% 0.00 mm 211.39 W/m2
15:59 30.0 °C 27.0 °C 1009.2 hPa SSE 12 km/h 16 km/h 85% 0.00 mm 207.48 W/m2
16:02 30.0 °C 27.0 °C 1009.2 hPa SSE 10 km/h 12 km/h 85% 0.00 mm 215.36 W/m2
16:07 31.0 °C 27.0 °C 1008.9 hPa SSE 8 km/h 8 km/h 83% 0.00 mm 237.16 W/m2
16:11 31.0 °C 28.0 °C 1008.9 hPa South 4 km/h 4 km/h 81% 0.00 mm 217.51 W/m2
16:19 31.0 °C 27.0 °C 1009.0 hPa South 10 km/h 12 km/h 81% 0.00 mm 197.42 W/m2
16:23 31.0 °C 27.0 °C 1009.1 hPa SSE 9 km/h 12 km/h 80% 0.00 mm 176.36 W/m2
16:29 31.0 °C 27.0 °C 1009.4 hPa South 10 km/h 12 km/h 80% 0.00 mm 173.54 W/m2
16:34 31.0 °C 27.0 °C 1009.3 hPa SSE 14 km/h 20 km/h 79% 0.00 mm 169.94 W/m2
16:39 31.0 °C 27.0 °C 1009.4 hPa SSE 8 km/h 12 km/h 80% 0.00 mm 175.72 W/m2
16:44 32.0 °C 28.0 °C 1009.4 hPa South 10 km/h 12 km/h 80% 0.00 mm 175.96 W/m2
16:48 31.0 °C 28.0 °C 1009.2 hPa SSW 9 km/h 12 km/h 81% 0.00 mm 176.40 W/m2
16:54 31.0 °C 27.0 °C 1009.5 hPa SSE 12 km/h 12 km/h 82% 0.00 mm 177.55 W/m2
16:59 31.0 °C 28.0 °C 1009.5 hPa SW 1 km/h 4 km/h 84% 0.00 mm 149.93 W/m2
17:04 31.0 °C 28.0 °C 1009.6 hPa SSW 7 km/h 12 km/h 83% 0.00 mm 144.47 W/m2
17:09 31.0 °C 28.0 °C 1009.5 hPa SSW 6 km/h 12 km/h 83% 0.00 mm 113.28 W/m2
17:14 31.0 °C 28.0 °C 1009.8 hPa South 9 km/h 12 km/h 84% 0.00 mm 101.19 W/m2
17:19 31.0 °C 28.0 °C 1009.8 hPa South 8 km/h 8 km/h 84% 0.00 mm 99.92 W/m2
17:23 31.0 °C 28.0 °C 1009.7 hPa SSE 10 km/h 12 km/h 84% 0.00 mm 95.47 W/m2
17:29 31.0 °C 28.0 °C 1009.7 hPa SSE 8 km/h 12 km/h 85% 0.00 mm 83.45 W/m2
17:34 31.0 °C 28.0 °C 1010.2 hPa SSW 6 km/h 12 km/h 84% 0.00 mm 79.71 W/m2
17:39 30.0 °C 27.0 °C 1009.9 hPa SSW 6 km/h 8 km/h 84% 0.00 mm 62.92 W/m2
17:44 30.0 °C 27.0 °C 1010.2 hPa South 6 km/h 12 km/h 83% 0.00 mm 57.22 W/m2
17:47 30.0 °C 27.0 °C 1009.8 hPa SSE 6 km/h 8 km/h 83% 0.00 mm 46.13 W/m2
17:54 30.0 °C 27.0 °C 1010.0 hPa South 5 km/h 8 km/h 83% 0.00 mm 39.56 W/m2
17:59 30.0 °C 27.0 °C 1010.3 hPa SSE 10 km/h 12 km/h 83% 0.00 mm 33.28 W/m2
18:00 30.0 °C 27.0 °C 1010.5 hPa SE 10 km/h 12 km/h 83% 0.00 mm 26.06 W/m2
18:09 30.0 °C 27.0 °C 1010.4 hPa SSE 8 km/h 12 km/h 83% 0.00 mm 18.73 W/m2
18:14 30.0 °C 27.0 °C 1010.6 hPa SSE 5 km/h 8 km/h 83% 0.00 mm 12.68 W/m2
18:19 30.0 °C 27.0 °C 1010.4 hPa SE 8 km/h 12 km/h 83% 0.00 mm 8.05 W/m2
18:24 30.0 °C 27.0 °C 1010.7 hPa SSE 11 km/h 16 km/h 83% 0.00 mm 3.65 W/m2
18:29 30.0 °C 26.0 °C 1010.8 hPa SSE 8 km/h 12 km/h 83% 0.00 mm 0.00 W/m2
18:34 30.0 °C 26.0 °C 1010.9 hPa SSE 10 km/h 12 km/h 82% 0.00 mm 0.00 W/m2
18:39 30.0 °C 26.0 °C 1011.0 hPa SE 9 km/h 12 km/h 82% 0.00 mm 0.00 W/m2
18:43 30.0 °C 26.0 °C 1010.8 hPa SSE 5 km/h 8 km/h 81% 0.00 mm 0.00 W/m2
18:49 30.0 °C 26.0 °C 1011.2 hPa SSE 3 km/h 4 km/h 81% 0.00 mm 0.00 W/m2
18:54 30.0 °C 26.0 °C 1011.2 hPa SE 7 km/h 8 km/h 81% 0.00 mm 0.00 W/m2
18:59 30.0 °C 26.0 °C 1011.2 hPa SSE 8 km/h 8 km/h 81% 0.00 mm 0.00 W/m2
19:03 30.0 °C 26.0 °C 1010.8 hPa SE 8 km/h 8 km/h 81% 0.00 mm 0.00 W/m2
19:09 30.0 °C 26.0 °C 1011.2 hPa SSE 10 km/h 12 km/h 81% 0.00 mm 0.00 W/m2
19:14 30.0 °C 26.0 °C 1011.0 hPa SE 12 km/h 12 km/h 81% 0.00 mm 0.00 W/m2
19:19 30.0 °C 26.0 °C 1011.0 hPa SE 5 km/h 8 km/h 81% 0.00 mm 0.00 W/m2
19:24 30.0 °C 26.0 °C 1011.2 hPa Calm   4 km/h 81% 0.00 mm 0.00 W/m2
19:27 30.0 °C 26.0 °C 1011.1 hPa Calm     81% 0.00 mm 0.00 W/m2
19:34 30.0 °C 27.0 °C 1011.3 hPa Calm     82% 0.00 mm 0.00 W/m2
19:39 30.0 °C 27.0 °C 1011.5 hPa Calm   4 km/h 82% 0.00 mm 0.00 W/m2
19:44 30.0 °C 27.0 °C 1011.3 hPa ESE 2 km/h 4 km/h 82% 0.00 mm 0.00 W/m2
19:49 30.0 °C 27.0 °C 1011.3 hPa East 3 km/h 4 km/h 82% 0.00 mm 0.00 W/m2
19:54 30.0 °C 27.0 °C 1011.5 hPa NE 1 km/h 4 km/h 82% 0.00 mm 0.00 W/m2
19:59 30.0 °C 27.0 °C 1011.9 hPa North 10 km/h 12 km/h 82% 0.00 mm 0.00 W/m2
20:04 30.0 °C 26.0 °C 1012.2 hPa NW 21 km/h 28 km/h 83% 0.00 mm 0.00 W/m2
20:09 28.0 °C 25.0 °C 1012.3 hPa NW 25 km/h 28 km/h 84% 0.00 mm 0.00 W/m2
20:14 28.0 °C 25.0 °C 1012.4 hPa NW 30 km/h 36 km/h 84% 0.00 mm 0.00 W/m2
20:19 27.0 °C 24.0 °C 1012.3 hPa NW 15 km/h 16 km/h 86% 0.00 mm 0.00 W/m2
20:24 27.0 °C 24.0 °C 1012.5 hPa NW 33 km/h 40 km/h 86% 0.00 mm 0.00 W/m2
20:29 26.0 °C 24.0 °C 1012.5 hPa NW 29 km/h 32 km/h 86% 0.00 mm 0.00 W/m2
20:33 26.0 °C 24.0 °C 1012.4 hPa NNW 20 km/h 32 km/h 85% 0.00 mm 0.00 W/m2
20:39 26.0 °C 24.0 °C 1012.4 hPa NW 15 km/h 20 km/h 87% 0.00 mm 0.00 W/m2
20:44 27.0 °C 24.0 °C 1012.3 hPa NNW 14 km/h 16 km/h 86% 0.00 mm 0.00 W/m2
20:49 27.0 °C 24.0 °C 1012.3 hPa NW 17 km/h 20 km/h 88% 0.00 mm 0.00 W/m2
20:54 26.0 °C 24.0 °C 1012.4 hPa NW 14 km/h 16 km/h 89% 1.80 mm 0.00 W/m2
20:59 26.0 °C 24.0 °C 1012.4 hPa NW 8 km/h 8 km/h 90% 1.80 mm 0.00 W/m2
21:04 26.0 °C 25.0 °C 1012.2 hPa Calm     90% 1.80 mm 0.00 W/m2
21:09 27.0 °C 25.0 °C 1012.2 hPa Calm     90% 0.00 mm 0.00 W/m2
21:13 27.0 °C 25.0 °C 1012.5 hPa NNE 1 km/h 4 km/h 89% 0.00 mm 0.00 W/m2
21:19 27.0 °C 25.0 °C 1012.5 hPa NNE 9 km/h 12 km/h 88% 0.00 mm 0.00 W/m2
21:24 27.0 °C 25.0 °C 1012.4 hPa NE 10 km/h 16 km/h 87% 0.00 mm 0.00 W/m2
21:29 27.0 °C 25.0 °C 1012.5 hPa Calm     88% 0.00 mm 0.00 W/m2
21:34 27.0 °C 25.0 °C 1012.9 hPa North 2 km/h 4 km/h 88% 0.00 mm 0.00 W/m2
21:39 27.0 °C 25.0 °C 1012.9 hPa NNE 5 km/h 8 km/h 88% 0.00 mm 0.00 W/m2
21:44 27.0 °C 25.0 °C 1012.6 hPa NNE 7 km/h 12 km/h 88% 0.00 mm 0.00 W/m2
21:49 27.0 °C 25.0 °C 1012.7 hPa North 9 km/h 16 km/h 88% 0.00 mm 0.00 W/m2
21:52 27.0 °C 25.0 °C 1012.9 hPa North 4 km/h 8 km/h 87% 0.00 mm 0.00 W/m2
21:59 27.0 °C 25.0 °C 1012.5 hPa North 6 km/h 8 km/h 86% 0.00 mm 0.00 W/m2
22:03 27.0 °C 25.0 °C 1012.5 hPa North 1 km/h 4 km/h 86% 0.00 mm 0.00 W/m2
22:07 27.0 °C 25.0 °C 1012.5 hPa NNE 3 km/h 4 km/h 86% 0.00 mm 0.00 W/m2
22:11 27.0 °C 24.0 °C 1012.2 hPa NNE 5 km/h 8 km/h 85% 0.00 mm 0.00 W/m2
22:19 27.0 °C 24.0 °C 1012.3 hPa North 5 km/h 8 km/h 84% 0.00 mm 0.00 W/m2
22:24 27.0 °C 24.0 °C 1012.2 hPa North 4 km/h 8 km/h 84% 0.00 mm 0.00 W/m2
22:29 27.0 °C 24.0 °C 1012.2 hPa NW 3 km/h 4 km/h 84% 0.00 mm 0.00 W/m2
22:34 27.0 °C 24.0 °C 1012.2 hPa NNE 1 km/h 4 km/h 84% 0.00 mm 0.00 W/m2
22:39 27.0 °C 24.0 °C 1012.2 hPa North 7 km/h 8 km/h 83% 0.00 mm 0.00 W/m2
22:44 27.0 °C 24.0 °C 1011.9 hPa North 4 km/h 8 km/h 83% 0.00 mm 0.00 W/m2
22:49 27.0 °C 24.0 °C 1012.0 hPa North 5 km/h 8 km/h 84% 0.00 mm 0.00 W/m2
22:53 27.0 °C 24.0 °C 1011.9 hPa NE 1 km/h 4 km/h 84% 0.00 mm 0.00 W/m2
22:59 27.0 °C 24.0 °C 1012.1 hPa North 3 km/h 4 km/h 84% 0.00 mm 0.00 W/m2
23:03 27.0 °C 24.0 °C 1012.2 hPa North 3 km/h 4 km/h 84% 0.00 mm 0.00 W/m2
23:09 27.0 °C 24.0 °C 1012.0 hPa NNE 6 km/h 8 km/h 84% 0.00 mm 0.00 W/m2
23:14 27.0 °C 24.0 °C 1012.2 hPa NNE 6 km/h 8 km/h 84% 0.00 mm 0.00 W/m2
23:19 27.0 °C 24.0 °C 1012.2 hPa NNE 5 km/h 8 km/h 84% 0.00 mm 0.00 W/m2
23:24 27.0 °C 25.0 °C 1011.9 hPa NNE 2 km/h 4 km/h 84% 0.00 mm 0.00 W/m2
23:29 27.0 °C 25.0 °C 1011.9 hPa NE 5 km/h 8 km/h 84% 0.00 mm 0.00 W/m2
23:34 27.0 °C 24.0 °C 1011.9 hPa NE 5 km/h 8 km/h 84% 0.00 mm 0.00 W/m2
23:39 27.0 °C 25.0 °C 1011.9 hPa Calm   4 km/h 84% 0.00 mm 0.00 W/m2
23:44 28.0 °C 25.0 °C 1011.6 hPa Calm     84% 0.00 mm 0.00 W/m2
23:49 28.0 °C 25.0 °C 1011.9 hPa Calm     84% 0.00 mm 0.00 W/m2
23:54 28.0 °C 25.0 °C 1011.6 hPa NE 1 km/h 4 km/h 84% 0.00 mm 0.00 W/m2
23:59 28.0 °C 25.0 °C 1011.7 hPa Calm     85% 0.00 mm 0.00 W/m2
PIMOHWEATHER Philippines
Compliments of Weather Underground - 2 mb